Flight Track Log - Related Links

Times and Time Zones

All times are in EDT time to prevent confusion due to time zone crossing. See the CPZ5714 flight status page for this flight to view local times or setup timezone preferences in your user account.

Time Position Orientation Groundspeed Altitude Reporting Facility
EDT Latitude Longitude Course Direction KTS MPH feet Rate Location/Type
Wed 10:04:56 PM 44.8667 -93.1167 70° East 194 223 2,700  Level Minneapolis TRACON
Wed 10:06:00 PM 45.0024 -92.7525 69° East  Level FlightAware Approximate
Wed 10:06:14 PM 44.9033 -93.0347 58° Northeast 258 297 5,800  Level Minneapolis Center
Wed 10:07:00 PM 45.0463 -92.5965 68° East  Level FlightAware Approximate
Wed 10:07:15 PM 44.9792 -92.9917 22° Northeast 292 336 8,600  Level Minneapolis Center
Wed 10:08:00 PM 45.0899 -92.4404 70° East  Level FlightAware Approximate
Wed 10:08:17 PM 45.0511 -92.9331 30° Northeast 310 357 10,800  Level Minneapolis Center
Wed 10:09:00 PM 45.1257 -92.2810 70° East  Level FlightAware Approximate
Wed 10:09:18 PM 45.1203 -92.8367 45° Northeast 348 400 13,000  Level Minneapolis Center
Wed 10:10:00 PM 45.1648 -92.1242 70° East  Level FlightAware Approximate
Wed 10:10:20 PM 45.1906 -92.7364 45° Northeast 359 413 15,300  Level Minneapolis Center
Wed 10:11:21 PM 45.2547 -92.6203 52° Northeast 381 438 17,000 1,756 Climbing Minneapolis Center
Wed 10:12:23 PM 45.2775 -92.4675 78° East 393 452 18,900 2,049 Climbing Minneapolis Center
Wed 10:13:24 PM 45.2794 -92.2736 89° East 422 486 21,200 1,707 Climbing Minneapolis Center
Wed 10:14:26 PM 45.2636 -92.1411 100° East 427 491 22,400 1,463 Climbing Minneapolis Center
Wed 10:15:27 PM 45.2539 -91.9347 94° East 437 503 24,200 1,659 Climbing Minneapolis Center
Wed 10:16:29 PM 45.2439 -91.7597 95° East 442 509 25,800 1,366 Climbing Minneapolis Center
Wed 10:17:30 PM 45.2339 -91.5833 95° East 447 514 27,000 1,171 Climbing Minneapolis Center
Wed 10:18:32 PM 45.2244 -91.4036 94° East 455 524 28,200 1,161 Climbing Minneapolis Center
Wed 10:19:34 PM 45.2122 -91.2061 95° East 454 522 29,400 927 Climbing Minneapolis Center
Wed 10:20:35 PM 45.2017 -91.0258 95° East 458 527 30,100 780 Climbing Minneapolis Center
Wed 10:21:37 PM 45.1925 -90.8436 94° East 462 532 31,000 878 Climbing Minneapolis Center
Wed 10:22:38 PM 45.1786 -90.6622 96° East 463 533 31,900 738 Climbing Minneapolis Center
Wed 10:23:39 PM 45.1692 -90.5175 95° East 464 534 32,500 829 Climbing Minneapolis Center
Wed 10:24:41 PM 45.1547 -90.2997 95° East 464 534 33,600 1,016 Climbing Minneapolis Center
Wed 10:25:43 PM 45.1394 -90.0858 96° East 459 528 34,600 622 Climbing Minneapolis Center
Wed 10:26:56 PM 45.1272 -89.9092 96° East 456 525 35,000 178 Climbing Minneapolis Center
Wed 10:27:58 PM 45.1111 -89.6906 96° East 464 534 35,000  Level Minneapolis Center
Wed 10:28:59 PM 45.0967 -89.5083 96° East 469 540 35,000  Level Minneapolis Center
Wed 10:30:13 PM 45.0803 -89.2894 96° East 470 541 35,000  Level Minneapolis Center
Wed 10:31:15 PM 45.0656 -89.1042 96° East 474 545 35,000  Level Minneapolis Center
Wed 10:32:16 PM 45.0506 -88.9097 96° East 478 550 35,000  Level Minneapolis Center
Wed 10:33:18 PM 45.0342 -88.7228 97° East 479 551 35,000  Level Minneapolis Center
Wed 10:34:19 PM 45.0158 -88.5039 97° East 481 554 35,000  Level Minneapolis Center
Wed 10:35:20 PM 45.0000 -88.3125 97° East 488 562 35,000  Level Minneapolis Center
Wed 10:36:22 PM 44.9836 -88.1431 98° East 489 563 35,000  Level Minneapolis Center
Wed 10:37:23 PM 44.9672 -87.9519 97° East 491 565 35,000  Level Minneapolis Center
Wed 10:38:25 PM 44.9469 -87.7217 97° East 492 566 35,000  Level Minneapolis Center
Wed 10:39:26 PM 44.9278 -87.5289 98° East 496 571 35,000  Level Minneapolis Center
Wed 10:40:27 PM 44.9089 -87.3342 98° East 501 577 35,000  Level Minneapolis Center
Wed 10:41:29 PM 44.8903 -87.1422 98° East 498 573 35,000  Level Minneapolis Center
Wed 10:42:30 PM 44.8719 -86.9506 98° East 494 568 35,000  Level Minneapolis Center
Wed 10:43:32 PM 44.8528 -86.7608 98° East 497 572 35,000  Level Minneapolis Center
Wed 10:44:33 PM 44.8331 -86.5661 98° East 501 577 35,000  Level Minneapolis Center
Wed 10:45:34 PM 44.8131 -86.3764 98° East 496 571 35,000  Level Minneapolis Center
Wed 10:46:35 PM 44.7975 -86.2217 98° East 496 571 35,000  Level Minneapolis Center
Wed 10:47:37 PM 44.7722 -85.9939 99° East 493 567 35,000  Level Minneapolis Center
Wed 10:48:38 PM 44.7481 -85.7656 98° East 492 566 35,000  Level Minneapolis Center
Wed 10:49:40 PM 44.7292 -85.5922 99° East 493 567 35,000  Level Minneapolis Center
Wed 10:50:41 PM 44.7078 -85.4019 99° East 494 568 35,000  Level Minneapolis Center
Wed 10:51:42 PM 44.6858 -85.2125 99° East 493 567 35,000  Level Minneapolis Center
Wed 10:52:43 PM 44.6636 -85.0214 99° East 496 571 35,000  Level Minneapolis Center
Wed 10:53:45 PM 44.6372 -84.7919 99° East 497 572 35,000  Level Minneapolis Center
Wed 10:54:46 PM 44.6147 -84.6036 99° East 494 568 35,000  Level Minneapolis Center
Wed 10:56:00 PM 44.5919 -84.4150 100° East 491 565 35,000  Level Minneapolis Center
Wed 10:57:01 PM 44.5636 -84.1875 100° East 494 568 35,000  Level Minneapolis Center
Wed 10:58:02 PM 44.5400 -83.9986 100° East 494 568 35,000  Level Minneapolis Center
Wed 10:59:04 PM 44.5164 -83.8092 100° East 494 568 35,000  Level Minneapolis Center
Wed 11:00:05 PM 44.4911 -83.6206 101° East 494 568 35,000  Level Minneapolis Center
Wed 11:01:06 PM 44.4672 -83.4322 100° East 493 567 35,000  Level Minneapolis Center
Wed 11:02:07 PM 44.4372 -83.2036 100° East 498 573 35,000  Level Minneapolis Center
Wed 11:03:09 PM 44.4117 -83.0136 101° East 498 573 35,000  Level Minneapolis Center
Wed 11:04:10 PM 44.3856 -82.8250 101° East 498 573 35,000  Level Minneapolis Center
Wed 11:05:11 PM 44.3600 -82.6342 101° East 499 574 35,000  Level Minneapolis Center
Wed 11:06:12 PM 44.3339 -82.4456 101° East 498 573 35,000  Level Minneapolis Center
Wed 11:07:13 PM 44.3072 -82.2561 101° East 498 573 35,000  Level Minneapolis Center
Wed 11:08:14 PM 44.2500 -82.0333 110° East 500 575 35,000  Level Toronto Center
Wed 11:09:14 PM 44.2333 -81.8500 97° East 500 575 35,000  Level Toronto Center
Wed 11:10:14 PM 44.2000 -81.6500 103° East 500 575 35,000  Level Toronto Center
Wed 11:11:14 PM 44.1833 -81.4667 97° East 500 575 35,000  Level Toronto Center
Wed 11:12:14 PM 44.1500 -81.2667 103° East 510 587 35,000  Level Toronto Center
Wed 11:13:14 PM 44.1167 -81.0667 103° East 510 587 35,000  Level Toronto Center
Wed 11:14:14 PM 44.0833 -80.8833 104° East 510 587 35,000  Level Toronto Center
Wed 11:15:14 PM 44.0667 -80.7000 97° East 510 587 35,000  Level Toronto Center
Wed 11:16:14 PM 44.0333 -80.5167 104° East 510 587 35,000  Level Toronto Center
Wed 11:18:14 PM 43.9667 -80.1167 103° East 510 587 35,000  Level Toronto Center
Wed 11:19:14 PM 43.9333 -79.9333 104° East 510 587 35,000  Level Toronto Center
Wed 11:20:14 PM 43.9000 -79.7333 103° East 510 587 35,000  Level Toronto Center
Wed 11:21:14 PM 43.8667 -79.5333 103° East 520 598 35,000  Level Toronto Center
Wed 11:22:14 PM 43.8333 -79.3500 104° East 520 598 35,000  Level Toronto Center
Wed 11:23:14 PM 43.8000 -79.1500 103° East 520 598 35,000  Level Toronto Center
Wed 11:24:14 PM 43.7833 -78.9667 97° East 510 587 35,000  Level Toronto Center
Wed 11:25:14 PM 43.7500 -78.7500 102° East 520 598 35,000  Level Toronto Center
Wed 11:26:14 PM 43.7167 -78.5667 104° East 520 598 35,000  Level Toronto Center
Wed 11:27:14 PM 43.6667 -78.3833 111° Southeast 520 598 35,000  Level Toronto Center
Wed 11:28:14 PM 43.6333 -78.1833 103° East 520 598 35,000  Level Toronto Center
Wed 11:29:14 PM 43.6000 -78.0000 104° East 520 598 35,000  Level Toronto Center
Wed 11:30:22 PM 43.5731 -77.8067 101° East 514 592 35,000 -47 Level Cleveland Center
Wed 11:31:22 PM 43.5350 -77.6136 105° East 514 592 34,900 -700 Descending Cleveland Center
Wed 11:32:22 PM 43.5008 -77.4236 104° East 508 585 33,600 -1,300 Descending Cleveland Center
Wed 11:33:22 PM 43.4642 -77.2311 105° East 513 590 32,300 -1,327 Descending Cleveland Center
Wed 11:34:06 PM 43.4339 -77.0728 105° East 514 592 31,300 -1,327 Descending Boston Center
Wed 11:35:06 PM 43.3958 -76.8783 105° East 533 613 30,000 -1,150 Descending Boston Center
Wed 11:36:06 PM 43.3594 -76.6872 105° East 523 602 29,000 -500 Descending Boston Center
Wed 11:37:06 PM 43.3225 -76.4989 105° East 517 595 29,000  Level Boston Center
Wed 11:38:06 PM 43.2850 -76.3111 105° East 512 589 29,000  Level Boston Center
Wed 11:39:06 PM 43.2583 -76.1781 105° East 517 595 29,000  Level Boston Center
Wed 11:40:06 PM 43.2114 -75.9500 106° East 517 595 29,000 -900 Level Boston Center
Wed 11:41:06 PM 43.1731 -75.7656 106° East 517 595 27,200 -1,900 Descending Boston Center
Wed 11:42:06 PM 43.1344 -75.5814 106° East 511 588 25,200 -2,000 Descending Boston Center
Wed 11:43:06 PM 43.0994 -75.4089 105° East 494 568 23,200 -2,000 Descending Boston Center
Wed 11:44:06 PM 43.0622 -75.2394 107° East 474 545 21,200 -1,950 Descending Boston Center
Wed 11:45:06 PM 43.0264 -75.0758 107° East 463 533 19,300 -1,800 Descending Boston Center
Wed 11:46:06 PM 42.9944 -74.9183 105° East 446 513 17,600 -1,950 Descending Boston Center
Wed 11:47:06 PM 42.9583 -74.7522 106° East 427 491 15,400 -2,050 Descending Boston Center
Wed 11:48:06 PM 42.9319 -74.6181 105° East 404 465 13,500 -1,900 Descending Boston Center
Wed 11:49:06 PM 42.8972 -74.4667 107° East 391 450 11,600 -1,500 Descending Boston Center
Wed 11:50:14 PM 42.8642 -74.3267 108° East 333 383 10,300 -1,163 Descending Boston Center
Wed 11:51:15 PM 42.8431 -74.2128 104° East 299 344 9,100 -1,258 Descending Boston Center
Wed 11:52:18 PM 42.8156 -74.0958 108° East 305 351 7,700 -1,388 Descending Boston Center
Wed 11:53:16 PM 42.7942 -73.9992 107° East 290 334 6,300 -1,373 Descending Boston Center
Wed 11:54:16 PM 42.7492 -73.9358 134° Southeast 245 282 5,000 -1,289 Descending Boston Center
Wed 11:55:17 PM 42.6847 -73.9231 172° South 208 239 3,700 -934 Descending Boston Center
Wed 11:56:18 PM 42.6539 -73.8714 129° Southeast 176 203 3,100 -898 Descending Boston Center
Wed 11:57:24 PM 42.6653 -73.8039 77° East 163 188 1,800 -992 Descending Boston Center
Wed 11:58:25 PM 42.7006 -73.8075 356° North 123 142 1,000 -787 Descending Boston Center

Login

Don't have an account? Register now (free) for customized features, flight alerts, and more!